Alliance, NE

9:54 PM MDT on June 28, 2017 (GMT -0600)
Alliance Municipal

Weather History for KAIA - March, 2014

Change the Weather History Date:

Monday, March 31, 2014

  Actual Average Record
Temperature  
Mean Temperature 34 °F 41 °F  
Max Temperature 49 °F 56 °F 81 °F (2012)
Min Temperature 18 °F 27 °F 2 °F (1954)
Degree Days  
Heating Degree Days 31 24  
Month to date heating degree days 917 882  
Since 1 July heating degree days 6481 6286  
Cooling Degree Days 0 0  
Month to date cooling degree days 0 0  
Year to date cooling degree days 0 0  
Moisture  
Dew Point 26 °F    
Average Humidity 77    
Maximum Humidity 92    
Minimum Humidity 61    
Precipitation  
Precipitation 0.05 in 0.06 in 1.06 in (1929)
Month to date precipitation 0.15 0.85  
Year to date precipitation 1.40 1.41  
Sea Level Pressure  
Sea Level Pressure 29.73 in    
Wind  
Wind Speed 23 mph (NNW)    
Max Wind Speed 40 mph    
Max Gust Speed 51 mph    
Visibility 4 miles    
Events Fog , Rain , Snow    
T = Trace of Precipitation, MM = Missing Value Source: NWS Daily Summary

Daily Weather History Graph

Daily Weather History Graph

Search for Another Location

Airport or City:

Trip Planner

Search our weather history database for the weather conditions in past years. The results will help you decide how hot, cold, wet, or windy it might be!

Date:

Astronomy

Mar. 31, 2014 Rise Set
Actual Time 6:35 AM MDT 7:15 PM MDT
Civil Twilight 6:07 AM MDT 7:44 PM MDT
Nautical Twilight 5:34 AM MDT 8:17 PM MDT
Astronomical Twilight 4:59 AM MDT 8:52 PM MDT
Moon 6:59 AM MDT (3/31) 8:38 PM MDT (3/31)
Length of Visible Light 13h 36m
Length of Day
12h 40m
New Moon, 1% of the Moon is Illuminated
Mar 31
New Moon
Apr 7
First Quarter
Apr 15
Full
Apr 22
Last Quarter
Apr 29
New

Hourly Weather History & Observations

Time (MDT) Temp. Windchill Dew Point Humidity Pressure Visibility Wind Dir Wind Speed Gust Speed Precip Events Conditions
12:53 AM 48.9 °F - 36.0 °F 61% 29.36 in 10.0 mi West 17.3 mph 35.7 mph N/A   Scattered Clouds
1:53 AM 46.9 °F - 37.0 °F 68% 29.35 in 10.0 mi West 26.5 mph 33.4 mph N/A   Overcast
2:53 AM 43.0 °F 34.0 °F 36.0 °F 76% 29.36 in 10.0 mi NNW 21.9 mph - N/A   Mostly Cloudy
3:53 AM 39.9 °F 29.0 °F 36.0 °F 86% 29.38 in 10.0 mi NNW 26.5 mph 36.8 mph 0.00 in Rain Light Rain
4:10 AM 39.9 °F 29.0 °F 37.0 °F 89% 29.46 in 10.0 mi NNW 26.5 mph 39.1 mph 0.00 in Rain Light Rain
4:53 AM 35.1 °F 22.7 °F 33.1 °F 92% 29.45 in 5.0 mi NW 25.3 mph 39.1 mph 0.03 in Snow Light Snow
5:06 AM 34.0 °F 21.0 °F 32.0 °F 92% 29.51 in 3.0 mi NW 26.5 mph 36.8 mph 0.01 in Snow Light Snow
5:13 AM 34.0 °F 21.0 °F 32.0 °F 92% 29.52 in 3.0 mi NW 26.5 mph 36.8 mph 0.01 in Snow Light Snow
5:23 AM 34.0 °F 21.3 °F 30.9 °F 89% 29.53 in 2.0 mi NW 25.3 mph 40.3 mph 0.01 in Snow Light Snow
5:53 AM 33.1 °F 20.1 °F 30.9 °F 92% 29.52 in 1.5 mi WNW 25.3 mph 36.8 mph 0.02 in Snow Light Snow
5:58 AM 33.1 °F 20.1 °F 30.9 °F 92% 29.56 in 1.0 mi NW 25.3 mph 36.8 mph 0.00 in Snow Light Snow
6:07 AM 32.0 °F 16.0 °F 30.0 °F 92% 29.57 in 0.5 mi WNW 39.1 mph 47.2 mph 0.00 in Fog , Snow Snow
6:17 AM 32.0 °F 18.4 °F 28.9 °F 88% 29.58 in 0.8 mi NW 26.5 mph 44.9 mph 0.00 in Snow Light Snow
6:33 AM 32.0 °F 17.9 °F 28.9 °F 88% 29.60 in 1.0 mi NW 28.8 mph 39.1 mph 0.00 in Snow Light Snow
6:37 AM 30.9 °F 15.1 °F 28.9 °F 92% 29.60 in 1.5 mi NW 35.7 mph 43.7 mph 0.00 in Snow Light Snow
6:45 AM 30.9 °F 16.9 °F 28.9 °F 92% 29.61 in 1.2 mi NW 26.5 mph 43.7 mph 0.00 in Snow Light Snow
6:49 AM 30.2 °F 15.2 °F 28.4 °F 93% 29.61 in 0.8 mi NW 29.9 mph 39.1 mph 0.00 in Snow Light Snow
6:53 AM 30.0 °F 14.2 °F 28.0 °F 92% 29.59 in 0.8 mi NW 33.4 mph 42.6 mph 0.00 in Snow Light Snow
7:01 AM 30.0 °F 14.5 °F 28.0 °F 92% 29.62 in 0.2 mi NW 32.2 mph 46.0 mph 0.00 in Fog , Snow Heavy Snow
7:37 AM 28.0 °F 11.8 °F 27.0 °F 96% 29.66 in 0.2 mi NW 32.2 mph 42.6 mph 0.00 in Fog , Snow Heavy Snow
7:48 AM 28.4 °F 11.4 °F 26.6 °F 93% 29.67 in 0.2 mi NW 36.8 mph 46.0 mph 0.00 in Fog , Snow Heavy Snow
7:53 AM 28.0 °F 11.1 °F 26.1 °F 92% 29.68 in 0.2 mi NW 35.7 mph 46.0 mph 0.00 in Fog , Snow Snow
8:18 AM 27.0 °F 12.8 °F 26.1 °F 96% 29.70 in 0.5 mi NW 21.9 mph - 0.00 in Fog , Snow Snow
8:44 AM 26.1 °F 9.3 °F 24.1 °F 92% 29.71 in 0.2 mi NW 31.1 mph 41.4 mph 0.00 in Fog , Snow Snow
8:53 AM 26.1 °F 9.3 °F 24.1 °F 92% 29.72 in 0.2 mi NW 31.1 mph 39.1 mph 0.00 in Fog , Snow Snow
9:01 AM 25.0 °F 7.6 °F 23.0 °F 92% 29.71 in 0.2 mi NW 32.2 mph 42.6 mph 0.00 in Fog , Snow Heavy Snow
9:37 AM 24.1 °F 8.0 °F 21.9 °F 91% 29.75 in 0.2 mi NNW 25.3 mph 34.5 mph 0.00 in Fog , Snow Light Snow
9:43 AM 24.1 °F 8.7 °F 21.0 °F 88% 29.76 in 0.5 mi NNW 23.0 mph 34.5 mph 0.00 in Fog , Snow Light Snow
9:53 AM 25.0 °F 9.2 °F 21.0 °F 85% 29.78 in 0.8 mi NNW 25.3 mph 34.5 mph 0.00 in Snow Light Snow
10:06 AM 25.0 °F 8.4 °F 21.0 °F 85% 29.75 in 1.0 mi NW 28.8 mph 35.7 mph 0.00 in Snow Light Snow
10:23 AM 24.1 °F 7.4 °F 19.9 °F 84% 29.77 in 0.5 mi NW 27.6 mph 47.2 mph 0.00 in Fog , Snow Light Snow
10:53 AM 24.1 °F 7.4 °F 21.0 °F 88% 29.84 in 0.5 mi NNW 27.6 mph 43.7 mph 0.00 in Fog , Snow Light Snow
11:01 AM 23.0 °F 7.6 °F 19.0 °F 85% 29.79 in 1.2 mi North 21.9 mph 33.4 mph 0.00 in Snow Light Snow
11:04 AM 23.0 °F 7.2 °F 18.0 °F 81% 29.79 in 2.0 mi North 23.0 mph 33.4 mph 0.00 in Snow Light Snow
11:19 AM 24.1 °F 9.4 °F 19.9 °F 84% 29.79 in 2.0 mi NNW 20.7 mph 31.1 mph 0.00 in Snow Light Snow
11:30 AM 25.0 °F 7.3 °F 21.0 °F 85% 29.78 in 1.2 mi NNW 33.4 mph 47.2 mph 0.00 in Snow Light Snow
11:33 AM 25.0 °F 7.6 °F 21.0 °F 85% 29.79 in 0.8 mi NNW 32.2 mph 47.2 mph 0.00 in Snow Light Snow
11:53 AM 26.1 °F 8.8 °F 21.9 °F 84% 29.82 in 0.8 mi NNW 33.4 mph 44.9 mph 0.00 in Snow Light Snow
12:04 PM 27.0 °F 11.0 °F 23.0 °F 85% 29.79 in 1.2 mi NNW 28.8 mph 41.4 mph 0.00 in   Overcast
12:07 PM 27.0 °F 11.6 °F 21.9 °F 81% 29.78 in 2.0 mi NNW 26.5 mph 36.8 mph 0.00 in   Overcast
12:12 PM 27.0 °F 11.3 °F 23.0 °F 85% 29.78 in 3.0 mi NNW 27.6 mph 38.0 mph 0.00 in Snow Light Snow
12:44 PM 28.0 °F 10.9 °F 23.0 °F 81% 29.81 in 7.0 mi NNW 36.8 mph 48.3 mph 0.00 in   Overcast
12:53 PM 28.0 °F 11.1 °F 23.0 °F 81% 29.85 in 7.0 mi NNW 35.7 mph 43.7 mph 0.00 in   Overcast
1:44 PM 30.9 °F 15.1 °F 24.1 °F 76% 29.83 in 10.0 mi NNW 35.7 mph 49.5 mph N/A   Scattered Clouds
1:53 PM 30.9 °F 15.1 °F 24.1 °F 76% 29.87 in 10.0 mi NNW 35.7 mph 48.3 mph N/A   Partly Cloudy
2:53 PM 32.0 °F 17.0 °F 25.0 °F 75% 29.92 in 10.0 mi NNW 33.4 mph 43.7 mph N/A   Scattered Clouds
3:53 PM 33.1 °F 20.1 °F 26.1 °F 75% 29.97 in 10.0 mi NNW 25.3 mph 32.2 mph N/A   Clear
4:53 PM 34.0 °F 22.4 °F 25.0 °F 70% 30.01 in 10.0 mi NNW 20.7 mph 29.9 mph N/A   Clear
5:53 PM 33.1 °F 21.2 °F 24.1 °F 70% 30.04 in 10.0 mi North 20.7 mph - N/A   Clear
6:53 PM 30.9 °F 19.8 °F 23.0 °F 72% 30.08 in 10.0 mi North 16.1 mph - N/A   Clear
7:53 PM 27.0 °F 18.0 °F 21.9 °F 81% 30.10 in 10.0 mi North 9.2 mph - N/A   Clear
8:53 PM 24.1 °F 14.4 °F 21.0 °F 88% 30.15 in 10.0 mi NNE 9.2 mph - N/A   Clear
9:53 PM 23.0 °F 12.4 °F 19.0 °F 85% 30.12 in 10.0 mi NNE 10.4 mph - N/A   Clear
10:53 PM 21.0 °F 14.6 °F 17.1 °F 85% 30.15 in 10.0 mi NE 4.6 mph - N/A   Clear
11:53 PM 19.0 °F 9.0 °F 15.1 °F 85% 30.13 in 10.0 mi NE 8.1 mph - N/A   Clear